When you browse on this site, cookies collect data to enhance your experience and personalize the content and advertising you see.
Visit our Privacy Policy to learn more. By continuing to use the site, you agree to this use of cookies and data.
  • en France
  • Liste des pays
  • À 7 jours
  • Température de l'eau
  • Carte satellitaire
  • Carte météo
  • Widgets météo
  • user-avatar
    Se connecter

    Météo par heure à Grand Bassam

    Ce jour, 16 Juillet, Mardi

    Heure Température Précipitation Vent Pression Humidité
    00:00 +25°C° 0 mm 4 m/s 759 mmHg 89%
    01:00 +25°C° 0 mm 4 m/s 759 mmHg 89%
    02:00 +25°C° 0 mm 3 m/s 758 mmHg 90%
    03:00 +25°C° 0 mm 3 m/s 758 mmHg 91%
    04:00 +25°C° 0 mm 3 m/s 758 mmHg 90%
    05:00 +25°C° 0 mm 3 m/s 758 mmHg 90%
    06:00 +25°C° 0 mm 3 m/s 759 mmHg 90%
    07:00 +26°C° 0 mm 3 m/s 759 mmHg 87%
    08:00 +26°C° 0 mm 3 m/s 759 mmHg 84%
    09:00 +27°C° 0 mm 3 m/s 760 mmHg 81%
    10:00 +28°C° 0 mm 3 m/s 760 mmHg 76%
    11:00 +29°C° 0 mm 3 m/s 760 mmHg 71%
    12:00 +30°C° 0 mm 3 m/s 760 mmHg 65%
    13:00 +30°C° 0 mm 4 m/s 759 mmHg 66%
    14:00 +30°C° 0 mm 4 m/s 758 mmHg 67%
    15:00 +29°C° 0 mm 4 m/s 758 mmHg 68%
    16:00 +29°C° 0.1 mm 4 m/s 758 mmHg 72%
    17:00 +28°C° 0.1 mm 4 m/s 758 mmHg 76%
    18:00 +27°C° 0.1 mm 4 m/s 759 mmHg 81%
    19:00 +27°C° 0.3 mm 3 m/s 759 mmHg 84%
    20:00 +26°C° 0.3 mm 3 m/s 760 mmHg 88%
    21:00 +26°C° 0.3 mm 3 m/s 760 mmHg 91%
    22:00 +26°C° 0.3 mm 3 m/s 760 mmHg 91%
    23:00 +26°C° 0.3 mm 3 m/s 760 mmHg 91%

    Demain, 17 Juillet, Mercredi

    Heure Température Précipitation Vent Pression Humidité
    00:00 +26°C° 0.3 mm 4 m/s 760 mmHg 90%
    01:00 +26°C° 0.3 mm 4 m/s 760 mmHg 91%
    02:00 +25°C° 0.3 mm 4 m/s 760 mmHg 92%
    03:00 +25°C° 0.3 mm 4 m/s 759 mmHg 92%
    04:00 +25°C° 0.2 mm 3 m/s 760 mmHg 93%
    05:00 +25°C° 0.2 mm 3 m/s 760 mmHg 93%
    06:00 +25°C° 0.2 mm 3 m/s 760 mmHg 93%
    07:00 +26°C° 0.2 mm 3 m/s 761 mmHg 90%
    08:00 +27°C° 0.2 mm 3 m/s 761 mmHg 86%
    09:00 +27°C° 0.2 mm 3 m/s 761 mmHg 82%
    10:00 +28°C° 0.1 mm 3 m/s 761 mmHg 80%
    11:00 +28°C° 0.1 mm 3 m/s 761 mmHg 78%
    12:00 +28°C° 0.1 mm 3 m/s 761 mmHg 76%
    13:00 +29°C° 0 mm 4 m/s 760 mmHg 74%
    14:00 +29°C° 0 mm 4 m/s 759 mmHg 72%
    15:00 +29°C° 0 mm 5 m/s 759 mmHg 71%
    16:00 +28°C° 0 mm 4 m/s 759 mmHg 76%
    17:00 +28°C° 0 mm 3 m/s 759 mmHg 79%
    18:00 +27°C° 0 mm 3 m/s 759 mmHg 83%
    19:00 +26°C° 0 mm 3 m/s 759 mmHg 85%
    20:00 +26°C° 0 mm 3 m/s 760 mmHg 88%
    21:00 +26°C° 0 mm 3 m/s 760 mmHg 91%
    22:00 +26°C° 0 mm 3 m/s 760 mmHg 91%
    23:00 +26°C° 0 mm 3 m/s 760 mmHg 90%

    Après-demain, 18 Juillet, Jeudi

    Heure Température Précipitation Vent Pression Humidité
    00:00 +26°C° 0 mm 3 m/s 760 mmHg 89%
    01:00 +26°C° 0 mm 3 m/s 760 mmHg 90%
    02:00 +26°C° 0 mm 4 m/s 759 mmHg 90%
    03:00 +26°C° 0 mm 4 m/s 759 mmHg 91%
    04:00 +25°C° 0 mm 4 m/s 759 mmHg 91%
    05:00 +25°C° 0 mm 3 m/s 759 mmHg 92%
    06:00 +25°C° 0 mm 3 m/s 759 mmHg 92%
    07:00 +26°C° 0.1 mm 3 m/s 760 mmHg 89%
    08:00 +27°C° 0.1 mm 3 m/s 760 mmHg 86%
    09:00 +27°C° 0.1 mm 3 m/s 761 mmHg 83%
    10:00 +27°C° 0 mm 3 m/s 761 mmHg 81%
    11:00 +28°C° 0 mm 3 m/s 760 mmHg 80%
    12:00 +28°C° 0 mm 3 m/s 760 mmHg 78%
    13:00 +28°C° 0 mm 4 m/s 760 mmHg 77%
    14:00 +29°C° 0 mm 4 m/s 759 mmHg 75%
    15:00 +29°C° 0 mm 4 m/s 759 mmHg 73%
    16:00 +28°C° 0 mm 4 m/s 759 mmHg 77%
    17:00 +28°C° 0 mm 4 m/s 759 mmHg 80%
    18:00 +27°C° 0 mm 4 m/s 759 mmHg 83%
    19:00 +27°C° 0 mm 4 m/s 759 mmHg 85%
    20:00 +26°C° 0 mm 4 m/s 759 mmHg 88%
    21:00 +26°C° 0 mm 4 m/s 760 mmHg 90%
    22:00 +26°C° 0 mm 4 m/s 760 mmHg 90%
    23:00 +26°C° 0 mm 4 m/s 760 mmHg 90%

    19 Juillet, Vendredi

    Heure Température Précipitation Vent Pression Humidité
    00:00 +26°C° 0 mm 5 m/s 759 mmHg 90%
    01:00 +26°C° 0 mm 5 m/s 759 mmHg 90%
    02:00 +26°C° 0 mm 5 m/s 759 mmHg 90%
    03:00 +26°C° 0 mm 5 m/s 759 mmHg 90%
    04:00 +26°C° 0 mm 5 m/s 759 mmHg 90%
    05:00 +26°C° 0 mm 4 m/s 759 mmHg 91%
    06:00 +26°C° 0 mm 4 m/s 760 mmHg 91%
    07:00 +26°C° 0.7 mm 4 m/s 760 mmHg 91%
    08:00 +26°C° 0.7 mm 4 m/s 760 mmHg 90%
    09:00 +26°C° 0.7 mm 4 m/s 761 mmHg 90%
    10:00 +27°C° 0.6 mm 4 m/s 761 mmHg 87%
    11:00 +28°C° 0.6 mm 5 m/s 760 mmHg 84%
    12:00 +28°C° 0.6 mm 5 m/s 760 mmHg 81%
    13:00 +28°C° 0.2 mm 5 m/s 759 mmHg 80%
    14:00 +28°C° 0.2 mm 5 m/s 759 mmHg 78%
    15:00 +28°C° 0.2 mm 6 m/s 758 mmHg 77%
    16:00 +28°C° 0 mm 5 m/s 758 mmHg 80%
    17:00 +27°C° 0 mm 5 m/s 759 mmHg 82%
    18:00 +27°C° 0 mm 5 m/s 759 mmHg 84%
    19:00 +26°C° 0.1 mm 5 m/s 759 mmHg 86%
    20:00 +26°C° 0.1 mm 5 m/s 760 mmHg 88%
    21:00 +26°C° 0.1 mm 5 m/s 760 mmHg 89%
    22:00 +26°C° 0 mm 5 m/s 760 mmHg 89%
    23:00 +26°C° 0 mm 5 m/s 760 mmHg 89%

    20 Juillet, Samedi

    Heure Température Précipitation Vent Pression Humidité
    00:00 +26°C° 0 mm 5 m/s 760 mmHg 89%
    01:00 +26°C° 0.2 mm 5 m/s 760 mmHg 89%
    02:00 +26°C° 0.2 mm 5 m/s 760 mmHg 89%
    03:00 +26°C° 0.2 mm 5 m/s 760 mmHg 90%
    04:00 +26°C° 0.8 mm 5 m/s 760 mmHg 90%
    05:00 +26°C° 0.8 mm 5 m/s 760 mmHg 91%
    06:00 +25°C° 0.8 mm 5 m/s 760 mmHg 91%
    07:00 +26°C° 0.6 mm 4 m/s 760 mmHg 88%
    08:00 +27°C° 0.6 mm 4 m/s 761 mmHg 86%
    09:00 +27°C° 0.6 mm 4 m/s 761 mmHg 83%
    10:00 +28°C° 0.2 mm 4 m/s 761 mmHg 80%
    11:00 +28°C° 0.2 mm 4 m/s 761 mmHg 78%
    12:00 +29°C° 0.2 mm 4 m/s 760 mmHg 75%
    13:00 +29°C° 0.1 mm 5 m/s 760 mmHg 74%
    14:00 +29°C° 0.1 mm 5 m/s 759 mmHg 74%
    15:00 +29°C° 0.1 mm 5 m/s 759 mmHg 73%
    16:00 +28°C° 0 mm 4 m/s 759 mmHg 76%
    17:00 +28°C° 0 mm 4 m/s 759 mmHg 80%
    18:00 +27°C° 0 mm 4 m/s 759 mmHg 83%
    19:00 +27°C° 0 mm 4 m/s 759 mmHg 86%
    20:00 +26°C° 0 mm 3 m/s 760 mmHg 89%
    21:00 +26°C° 0 mm 3 m/s 760 mmHg 92%
    22:00 +26°C° 0 mm 4 m/s 760 mmHg 92%
    23:00 +26°C° 0 mm 4 m/s 760 mmHg 91%

    21 Juillet, Dimanche

    Heure Température Précipitation Vent Pression Humidité
    00:00 +26°C° 0 mm 4 m/s 760 mmHg 91%
    01:00 +26°C° 0.1 mm 4 m/s 760 mmHg 90%
    02:00 +26°C° 0.1 mm 5 m/s 759 mmHg 89%
    03:00 +26°C° 0.1 mm 5 m/s 759 mmHg 88%
    04:00 +26°C° 0.1 mm 5 m/s 759 mmHg 88%
    05:00 +26°C° 0.1 mm 5 m/s 759 mmHg 88%
    06:00 +26°C° 0.1 mm 5 m/s 759 mmHg 89%
    07:00 +26°C° 0.1 mm 5 m/s 760 mmHg 87%
    08:00 +26°C° 0.1 mm 5 m/s 760 mmHg 86%
    09:00 +27°C° 0.1 mm 5 m/s 761 mmHg 84%
    10:00 +27°C° 0.1 mm 5 m/s 761 mmHg 82%
    11:00 +27°C° 0.1 mm 4 m/s 761 mmHg 80%
    12:00 +28°C° 0.1 mm 4 m/s 761 mmHg 79%
    13:00 +28°C° 0.1 mm 5 m/s 760 mmHg 78%
    14:00 +28°C° 0.1 mm 5 m/s 759 mmHg 78%
    15:00 +28°C° 0.1 mm 5 m/s 759 mmHg 77%
    16:00 +27°C° 0 mm 5 m/s 759 mmHg 79%
    17:00 +27°C° 0 mm 5 m/s 759 mmHg 80%
    18:00 +27°C° 0 mm 5 m/s 759 mmHg 82%
    19:00 +26°C° 0 mm 5 m/s 759 mmHg 84%
    20:00 +26°C° 0 mm 5 m/s 759 mmHg 86%
    21:00 +25°C° 0 mm 5 m/s 760 mmHg 89%
    22:00 +25°C° 0 mm 5 m/s 760 mmHg 89%
    23:00 +25°C° 0 mm 5 m/s 760 mmHg 89%
    Voir plus